Time,TemperatureF,DewpointF,PressureIn,WindDirection,WindDirectionDegrees,WindSpeedMPH,WindSpeedGustMPH,Humidity,HourlyPrecipIn,Conditions,Clouds,dailyrainin,SoftwareType,DateUTC
2013-03-14 00:00:00,24.6,14.8,30.31,WNW,292,0.0,3.1,66,0.00,,,0.00,WUHU21623XXSP,2013-03-14 04:00:00,
2013-03-14 00:05:00,24.6,14.8,30.31,WNW,292,0.9,0.9,66,0.00,,,0.00,WUHU21623XXSP,2013-03-14 04:05:00,
2013-03-14 00:10:00,24.6,14.8,30.31,WNW,292,0.0,0.9,66,0.00,,,0.00,WUHU21623XXSP,2013-03-14 04:10:00,
2013-03-14 00:15:00,24.6,14.8,30.31,WNW,292,0.0,0.0,66,0.00,,,0.00,WUHU21623XXSP,2013-03-14 04:15:00,
2013-03-14 00:20:00,24.4,14.6,30.31,WNW,292,0.0,0.0,66,0.00,,,0.00,WUHU21623XXSP,2013-03-14 04:20:00,
2013-03-14 00:25:00,24.4,15.0,30.31,WNW,292,0.0,0.0,67,0.00,,,0.00,WUHU21623XXSP,2013-03-14 04:25:00,
2013-03-14 00:30:00,24.4,15.0,30.31,WNW,292,0.0,0.0,67,0.00,,,0.00,WUHU21623XXSP,2013-03-14 04:30:00,
2013-03-14 00:35:00,24.4,15.0,30.31,WNW,292,0.7,0.7,67,0.00,,,0.00,WUHU21623XXSP,2013-03-14 04:35:00,
2013-03-14 00:40:00,24.4,15.0,30.31,WNW,292,0.0,0.7,67,0.00,,,0.00,WUHU21623XXSP,2013-03-14 04:40:00,
2013-03-14 00:45:00,24.3,14.8,30.31,WNW,292,0.0,0.7,67,0.00,,,0.00,WUHU21623XXSP,2013-03-14 04:45:00,
2013-03-14 00:50:00,24.1,14.6,30.31,WNW,292,0.0,1.6,67,0.00,,,0.00,WUHU21623XXSP,2013-03-14 04:50:00,
2013-03-14 00:55:00,24.3,14.8,30.31,WNW,292,0.7,1.6,67,0.00,,,0.00,WUHU21623XXSP,2013-03-14 04:55:00,
2013-03-14 01:00:00,24.4,15.0,30.31,NW,315,1.1,1.1,67,0.00,,,0.00,WUHU21623XXSP,2013-03-14 05:00:00,
2013-03-14 01:05:00,24.4,15.3,30.31,NW,315,0.9,1.1,68,0.00,,,0.00,WUHU21623XXSP,2013-03-14 05:05:00,
2013-03-14 01:10:00,24.4,15.3,30.31,NW,315,1.3,1.3,68,0.00,,,0.00,WUHU21623XXSP,2013-03-14 05:10:00,
2013-03-14 01:15:00,24.4,15.3,30.31,NW,315,0.2,1.3,68,0.00,,,0.00,WUHU21623XXSP,2013-03-14 05:15:00,
2013-03-14 01:20:00,24.4,15.3,30.31,WNW,292,0.0,0.2,68,0.00,,,0.00,WUHU21623XXSP,2013-03-14 05:20:00,
2013-03-14 01:25:00,24.4,15.3,30.31,NW,315,1.1,1.1,68,0.00,,,0.00,WUHU21623XXSP,2013-03-14 05:25:00,
2013-03-14 01:30:00,24.4,15.3,30.30,WNW,292,0.0,1.1,68,0.00,,,0.00,WUHU21623XXSP,2013-03-14 05:30:00,
2013-03-14 01:35:00,24.4,15.3,30.30,WNW,292,0.0,1.1,68,0.00,,,0.00,WUHU21623XXSP,2013-03-14 05:35:00,
2013-03-14 01:40:00,24.4,15.7,30.31,WNW,292,0.0,1.1,69,0.00,,,0.00,WUHU21623XXSP,2013-03-14 05:40:00,
2013-03-14 01:45:00,24.4,15.7,30.31,WNW,292,0.0,1.1,69,0.00,,,0.00,WUHU21623XXSP,2013-03-14 05:45:00,
2013-03-14 01:50:00,24.4,15.7,30.31,WNW,292,4.7,4.7,69,0.00,,,0.00,WUHU21623XXSP,2013-03-14 05:50:00,
2013-03-14 01:55:00,24.3,15.5,30.31,WNW,292,0.0,4.7,69,0.00,,,0.00,WUHU21623XXSP,2013-03-14 05:55:00,
2013-03-14 02:00:00,24.1,15.3,30.31,WNW,292,0.0,0.0,69,0.00,,,0.00,WUHU21623XXSP,2013-03-14 06:00:00,
2013-03-14 02:05:00,24.1,15.3,30.31,WNW,292,0.0,0.0,69,0.00,,,0.00,WUHU21623XXSP,2013-03-14 06:05:00,
2013-03-14 02:10:00,24.1,15.3,30.30,WNW,292,0.0,0.0,69,0.00,,,0.00,WUHU21623XXSP,2013-03-14 06:10:00,
2013-03-14 02:15:00,24.1,15.3,30.31,WNW,292,1.8,1.8,69,0.00,,,0.00,WUHU21623XXSP,2013-03-14 06:15:00,
2013-03-14 02:20:00,24.1,15.3,30.31,WNW,292,0.0,1.8,69,0.00,,,0.00,WUHU21623XXSP,2013-03-14 06:20:00,
2013-03-14 02:25:00,24.1,15.3,30.31,WNW,292,0.0,1.8,69,0.00,,,0.00,WUHU21623XXSP,2013-03-14 06:25:00,
2013-03-14 02:30:00,23.9,15.2,30.31,WNW,292,0.0,0.0,69,0.00,,,0.00,WUHU21623XXSP,2013-03-14 06:30:00,
2013-03-14 02:35:00,23.9,15.2,30.31,WNW,292,0.0,0.0,69,0.00,,,0.00,WUHU21623XXSP,2013-03-14 06:35:00,
2013-03-14 02:40:00,23.7,15.0,30.31,WNW,292,0.0,0.0,69,0.00,,,0.00,WUHU21623XXSP,2013-03-14 06:40:00,
2013-03-14 02:45:00,23.5,14.8,30.31,WNW,292,0.0,0.0,69,0.00,,,0.00,WUHU21623XXSP,2013-03-14 06:45:00,
2013-03-14 02:50:00,23.5,14.8,30.31,WNW,292,0.0,0.0,69,0.00,,,0.00,WUHU21623XXSP,2013-03-14 06:50:00,
2013-03-14 02:55:00,23.4,14.7,30.32,WNW,292,0.0,0.0,69,0.00,,,0.00,WUHU21623XXSP,2013-03-14 06:55:00,
2013-03-14 03:00:00,23.2,14.5,30.31,WNW,292,0.0,0.0,69,0.00,,,0.00,WUHU21623XXSP,2013-03-14 07:00:00,
2013-03-14 03:05:00,23.2,14.5,30.31,WNW,292,0.0,0.0,69,0.00,,,0.00,WUHU21623XXSP,2013-03-14 07:05:00,
2013-03-14 03:10:00,23.2,14.5,30.31,WNW,292,0.0,0.0,69,0.00,,,0.00,WUHU21623XXSP,2013-03-14 07:10:00,
2013-03-14 03:15:00,22.8,14.5,30.33,WNW,292,0.0,0.0,70,0.00,,,0.00,WUHU21623XXSP,2013-03-14 07:15:00,
2013-03-14 04:09:00,21.7,14.1,30.31,West,270,0.0,0.0,72,0.00,,,0.00,WUHU21623XXSP,2013-03-14 08:09:00,
2013-03-14 05:09:00,21.0,13.7,30.30,WNW,293,0.0,0.0,73,0.00,,,0.00,WUHU21623XXSP,2013-03-14 09:09:00,
2013-03-14 06:09:00,20.8,13.5,30.30,WSW,248,0.0,0.0,73,0.00,,,0.00,WUHU21623XXSP,2013-03-14 10:09:00,
2013-03-14 07:09:00,22.3,15.6,30.29,WSW,248,0.0,0.0,75,0.00,,,0.00,WUHU21623XXSP,2013-03-14 11:09:00,
2013-03-14 08:09:00,25.2,19.0,30.32,WNW,293,0.0,0.0,77,0.00,,,0.00,WUHU21623XXSP,2013-03-14 12:09:00,
2013-03-14 09:09:00,34.0,25.6,30.33,North,0,0.0,0.0,71,0.00,,,0.00,WUHU21623XXSP,2013-03-14 13:09:00,
2013-03-14 10:09:00,35.2,25.0,30.32,West,270,1.1,1.1,66,0.00,,,0.00,WUHU21623XXSP,2013-03-14 14:09:00,
2013-03-14 11:09:00,35.2,23.5,30.31,NW,315,5.8,5.8,62,0.00,,,0.00,WUHU21623XXSP,2013-03-14 15:09:00,
2013-03-14 12:09:00,37.2,23.8,30.28,SW,225,3.4,3.4,58,0.00,,,0.00,WUHU21623XXSP,2013-03-14 16:09:00,
2013-03-14 13:09:00,39.0,25.5,30.26,WNW,293,2.7,2.7,58,0.00,,,0.00,WUHU21623XXSP,2013-03-14 17:09:00,
2013-03-14 14:09:00,39.9,25.5,30.24,WNW,293,2.9,2.9,56,0.00,,,0.00,WUHU21623XXSP,2013-03-14 18:09:00,
2013-03-14 15:09:00,41.5,25.6,30.22,WSW,248,5.8,5.8,53,0.00,,,0.00,WUHU21623XXSP,2013-03-14 19:09:00,
2013-03-14 16:09:00,41.5,24.7,30.22,West,270,2.9,2.9,51,0.00,,,0.00,WUHU21623XXSP,2013-03-14 20:09:00,
2013-03-14 17:09:00,39.7,23.5,30.19,West,270,3.1,3.1,52,0.00,,,0.00,WUHU21623XXSP,2013-03-14 21:09:00,
2013-03-14 18:09:00,39.4,23.2,30.19,SW,225,0.0,0.0,52,0.00,,,0.00,WUHU21623XXSP,2013-03-14 22:09:00,
2013-03-14 19:09:00,37.0,22.8,30.21,WSW,248,0.0,0.0,56,0.00,,,0.00,WUHU21623XXSP,2013-03-14 23:09:00,
2013-03-14 20:09:00,36.1,23.2,30.20,West,270,0.0,0.0,59,0.00,,,0.00,WUHU21623XXSP,2013-03-15 00:09:00,
2013-03-14 21:09:00,34.3,23.1,30.15,WSW,248,1.1,1.1,63,0.00,,,0.00,WUHU21623XXSP,2013-03-15 01:09:00,
2013-03-14 22:09:00,33.3,24.3,30.16,NW,315,0.0,0.0,69,0.00,,,0.00,WUHU21623XXSP,2013-03-15 02:09:00,
2013-03-14 23:09:00,32.7,25.1,30.14,WSW,248,1.6,1.6,73,0.00,,,0.00,WUHU21623XXSP,2013-03-15 03:09:00,